Spokane Felts, WA

10:43 PM PST on January 23, 2018 (GMT -0800)
Felts

Weather History for KSFF - May, 2013

Change the Weather History Date:

Monday, May 6, 2013

  Actual Average Record
Temperature  
Mean Temperature 64 °F 52 °F  
Max Temperature 84 °F 65 °F 84 °F (2013)
Min Temperature 43 °F 39 °F 30 °F (1999)
Degree Days  
Heating Degree Days 1 13  
Month to date heating degree days 49 82  
Since 1 July heating degree days 5361 5937  
Cooling Degree Days 0 0  
Month to date cooling degree days 0 0  
Year to date cooling degree days 0 0  
Growing Degree Days 13 (Base 50)    
Moisture  
Dew Point 34 °F    
Average Humidity 41    
Maximum Humidity 70    
Minimum Humidity 12    
Precipitation  
Precipitation 0.00 in 0.05 in 0.29 in (2003)
Month to date precipitation T 0.25  
Year to date precipitation 4.37 6.39  
Sea Level Pressure  
Sea Level Pressure 29.82 in    
Wind  
Wind Speed 1 mph (NNE)    
Max Wind Speed 9 mph    
Max Gust Speed 17 mph    
Visibility 10 miles    
Events      
T = Trace of Precipitation, MM = Missing Value Source: NWS Daily Summary

Daily Weather History Graph

Daily Weather History Graph

Search for Another Location

Airport or City:

Trip Planner

Search our weather history database for the weather conditions in past years. The results will help you decide how hot, cold, wet, or windy it might be!

Date:

Astronomy

May. 06, 2013 Rise Set
Actual Time 5:23 AM PDT 8:08 PM PDT
Civil Twilight 4:48 AM PDT 8:44 PM PDT
Nautical Twilight 4:03 AM PDT 9:29 PM PDT
Astronomical Twilight 3:10 AM PDT 10:23 PM PDT
Moon 3:41 AM PDT (5/6) 5:02 PM PDT (5/6)
Length of Visible Light 15h 56m
Length of Day
14h 45m
Waning Crescent, 10% of the Moon is Illuminated
May 6
Waning Crescent
May 9
New
May 17
First Quarter
May 24
Full
May 31
Last Quarter

Hourly Weather History & Observations

Time (PDT) Temp. Dew Point Humidity Pressure Visibility Wind Dir Wind Speed Gust Speed Precip Events Conditions
12:53 AM 53.1 °F 35.1 °F 50% 29.87 in 10.0 mi NE 4.6 mph - N/A   Clear
1:53 AM 52.0 °F 34.0 °F 50% 29.88 in 10.0 mi Calm Calm - N/A   Clear
2:53 AM 46.0 °F 34.0 °F 63% 29.88 in 10.0 mi Calm Calm - N/A   Clear
3:53 AM 44.1 °F 35.1 °F 71% 29.89 in 10.0 mi Calm Calm - N/A   Clear
4:53 AM 44.1 °F 35.1 °F 71% 29.90 in 10.0 mi Calm Calm - N/A   Clear
5:53 AM 45.0 °F 35.1 °F 68% 29.90 in 10.0 mi Calm Calm - N/A   Clear
6:53 AM 50.0 °F 37.9 °F 63% 29.89 in 10.0 mi Calm Calm - N/A   Clear
7:53 AM 57.0 °F 35.1 °F 44% 29.89 in 10.0 mi Calm Calm - N/A   Clear
8:53 AM 60.1 °F 35.1 °F 39% 29.89 in 10.0 mi Calm Calm - N/A   Clear
9:53 AM 64.0 °F 36.0 °F 35% 29.89 in 10.0 mi West 4.6 mph - N/A   Clear
10:53 AM 70.0 °F 37.0 °F 30% 29.87 in 10.0 mi SE 4.6 mph - N/A   Clear
11:53 AM 73.9 °F 39.0 °F 28% 29.85 in 10.0 mi Calm Calm - N/A   Clear
12:53 PM 80.1 °F 36.0 °F 20% 29.81 in 10.0 mi North 3.5 mph - N/A   Clear
1:53 PM 81.0 °F 28.9 °F 15% 29.80 in 10.0 mi Calm Calm - N/A   Clear
2:53 PM 82.0 °F 25.0 °F 12% 29.78 in 10.0 mi Calm Calm - N/A   Clear
3:53 PM 82.9 °F 26.1 °F 13% 29.76 in 10.0 mi Calm Calm - N/A   Clear
4:53 PM 82.0 °F 27.0 °F 13% 29.75 in 10.0 mi West 5.8 mph - N/A   Clear
5:53 PM 82.0 °F 28.0 °F 14% 29.73 in 10.0 mi Calm Calm - N/A   Clear
6:53 PM 79.0 °F 37.0 °F 22% 29.72 in 10.0 mi Calm Calm - N/A   Clear
7:53 PM 68.0 °F 36.0 °F 31% 29.72 in 10.0 mi North 3.5 mph - N/A   Clear
8:53 PM 62.1 °F 37.0 °F 39% 29.73 in 10.0 mi Calm Calm - N/A   Clear
9:53 PM 59.0 °F 37.9 °F 46% 29.75 in 10.0 mi NNE 3.5 mph - N/A   Clear
10:53 PM 55.9 °F 39.0 °F 53% 29.75 in 10.0 mi Calm Calm - N/A   Clear
11:53 PM 55.0 °F 37.0 °F 51% 29.76 in 10.0 mi ENE 4.6 mph - N/A   Clear